Wind_Speed
3 5 6 8 10 14 20 24 28 30 30 28 26 24 21 20 20 18 16 14 15 18 18 15 13 10 6 9 14 20 18 11 16 4 10 10 12 15 16 15 12 11 11 11 8
4 5 7 9 11 14 20 24 28 29 28 26 24 21 19 18 17 14 15 20 22 20 16 14 15 12 7 13 14 14 16 13 7 4 7 9 11 7 15 15 11 8 8 9 9
5 6 8 10 12 15 20 24 28 28 27 25 22 19 17 16 16 15 17 19 18 14 14 14 13 18 18 9 16 16 9 7 7 8 6 6 11 10 11 0 10 7 4 6 7
7 6 9 11 13 16 19 22 26 27 26 24 20 17 15 15 14 16 18 17 13 13 14 10 8 6 16 11 14 10 9 6 5 5 5 6 9 9 8 8 7 5 5 4 6
8 8 11 12 13 16 19 22 24 25 24 22 18 15 13 12 15 14 15 15 14 13 9 8 3 11 4 13 3 7 4 6 7 8 10 8 7 6 8 6 6 4 3 3 4
10 9 12 13 15 17 19 22 22 23 22 19 16 13 11 13 13 14 13 13 12 11 6 5 6 11 10 2 6 12 7 7 9 7 10 8 7 11 14 12 8 7 4 0 2
12 12 12 15 16 17 19 21 21 22 20 17 15 13 11 12 12 15 13 12 12 9 8 10 9 5 6 10 8 4 13 5 6 10 12 10 5 6 9 13 12 7 8 7 3
15 13 13 16 18 17 19 21 20 19 18 16 14 13 10 12 13 13 10 11 11 8 7 5 3 4 5 1 2 4 9 7 3 5 9 10 14 7 5 12 9 9 7 8 6
17 16 14 15 18 18 18 20 20 20 19 16 13 13 12 13 11 10 10 8 8 7 6 4 3 2 2 9 5 5 3 5 6 4 3 4 15 18 2 10 4 7 7 8 9
19 18 15 15 16 18 18 19 19 20 19 16 13 13 11 10 10 8 6 4 4 5 3 3 6 2 2 16 15 7 10 10 14 11 9 5 4 11 18 12 2 6 5 4 5
20 19 16 15 15 16 17 18 20 20 19 15 13 12 11 8 7 5 6 6 5 5 5 6 7 1 8 6 10 3 4 16 13 15 9 13 13 8 17 22 14 12 10 7 9
21 20 18 15 14 13 14 16 17 17 20 16 13 10 9 8 7 6 6 6 5 3 8 9 2 7 7 11 7 7 9 15 16 12 16 6 9 2 4 17 14 19 14 13 12
21 20 19 16 14 12 12 12 16 17 17 15 12 9 8 7 6 5 5 6 5 4 10 7 6 10 10 3 3 8 8 9 6 4 10 8 10 18 1 4 9 15 22 13 17
21 19 18 17 16 14 11 11 15 17 15 13 11 10 9 8 9 8 6 5 8 6 9 8 7 5 3 4 3 3 4 4 3 6 17 20 19 23 16 9 14 18 16 22 28
21 20 18 16 12 10 12 14 14 14 14 12 8 8 8 10 10 8 7 6 6 1 3 5 2 2 0 7 5 11 16 19 19 9 15 15 14 18 11 5 14 29 30 23 23
21 19 17 14 15 13 15 15 14 11 1 6 9 10 10 8 8 7 5 2 1 2 8 5 4 5 2 6 10 10 15 21 13 5 1 8 23 16 17 18 24 23 22 23 23
21 18 18 14 12 18 20 21 17 13 1 7 9 9 8 5 5 3 3 3 5 12 4 5 8 4 6 4 6 1 10 15 16 7 10 15 9 9 25 24 18 19 20 22 23
19 18 18 16 17 18 23 17 15 4 5 9 7 5 5 3 6 5 7 7 16 5 14 16 8 10 3 4 4 10 16 10 3 6 10 13 8 12 26 25 27 25 29 33 23
18 18 20 15 19 21 22 16 13 7 10 12 5 6 2 13 12 6 1 15 21 1 9 16 7 13 14 4 5 4 3 1 0 7 7 0 9 21 26 28 33 35 34 32 35
17 19 21 17 19 21 21 13 6 14 12 10 9 11 5 13 5 1 6 10 9 13 12 11 5 2 11 6 7 5 7 5 3 5 8 10 10 11 22 33 41 41 33 32 30
16 17 21 19 18 20 21 7 7 10 10 12 8 11 9 11 7 6 6 15 16 16 9 10 6 6 13 14 8 13 11 9 10 12 12 12 8 27 35 38 38 35 36 33 32
16 19 22 19 18 22 23 2 13 8 9 14 19 12 12 11 13 11 9 14 6 10 10 11 10 10 14 20 15 19 19 12 12 12 12 17 16 20 30 37 43 47 42 43 38
15 18 20 21 20 24 21 11 13 10 10 10 12 14 14 17 14 13 9 21 10 12 12 12 12 13 11 2 10 21 19 17 14 15 17 19 15 13 28 35 48 49 43 45 42
17 19 19 19 24 26 20 14 13 13 11 13 13 13 12 12 13 12 14 18 16 14 14 17 16 16 15 12 19 21 19 21 23 23 21 19 23 26 33 39 46 45 45 50 50
20 21 22 20 19 17 19 15 16 14 14 14 13 12 13 15 16 16 16 18 20 17 17 18 17 18 17 17 19 27 26 24 25 25 26 24 28 28 34 40 42 45 47 52 56
19 19 21 23 23 22 22 19 18 15 13 15 16 16 18 18 19 19 17 18 19 22 17 15 18 20 17 17 21 23 20 20 23 24 26 27 27 29 39 41 44 47 49 51 56
17 20 20 21 20 20 20 21 21 21 22 20 21 21 21 24 20 19 20 20 20 21 21 21 22 23 22 20 24 23 21 22 23 24 29 30 35 37 38 40 42 42 46 49 54
Wind_Direction
148 110 102 103 114 132 142 144 147 149 148 145 141 139 139 131 128 115 112 129 140 128 112 122 112 101 143 105 81 62 84 141 35 49 49 29 35 40 45 50 57 72 65 83 92
165 124 118 116 122 138 149 150 152 153 151 148 144 140 132 128 129 119 113 121 121 125 120 118 118 111 100 85 103 51 61 56 61 111 16 25 35 46 50 55 59 73 74 63 95
168 133 127 125 133 147 158 157 157 158 156 155 152 142 134 130 125 119 121 128 130 126 138 148 138 127 102 48 104 82 70 33 21 37 41 32 24 44 59 79 54 71 91 97 97
164 141 138 133 138 152 160 161 160 162 163 162 160 149 140 136 128 124 129 127 125 128 145 150 180 246 99 97 46 93 86 63 69 78 70 70 18 48 58 32 44 59 103 121 119
163 146 146 141 142 155 159 164 165 165 167 167 164 155 148 142 132 131 130 134 136 138 134 144 132 86 46 106 88 73 11 79 53 55 48 36 86 336 35 30 7 44 82 132 142
162 145 147 146 143 155 160 166 164 167 168 165 161 159 154 144 144 144 141 142 136 137 143 112 75 78 46 304 30 56 346 64 48 41 43 38 33 60 39 20 360 348 342 89 193
164 144 144 144 143 151 158 168 166 167 164 159 158 159 162 156 149 140 131 142 149 132 107 118 67 76 71 117 18 179 179 179 49 45 18 20 282 74 4 20 8 336 330 327 305
167 148 140 143 145 148 157 167 166 162 155 154 156 151 131 138 148 146 136 139 145 151 136 124 85 71 56 49 313 247 269 261 289 154 181 336 296 56 20 359 10 354 320 307 313
172 156 142 140 144 148 155 161 162 160 158 158 159 153 126 128 143 150 140 140 147 164 162 134 177 103 83 253 349 325 296 277 339 74 297 340 330 326 313 163 12 341 335 317 303
177 165 151 141 142 148 155 159 164 166 168 170 167 164 155 158 168 160 141 120 164 184 112 267 290 136 103 7 26 15 31 3 357 33 3 5 41 308 327 2 350 29 21 325 325
179 171 161 150 145 150 159 168 171 176 178 185 173 167 183 187 195 181 166 166 194 148 228 231 248 187 106 65 16 34 350 39 41 39 38 13 26 336 315 297 127 351 354 348 316
180 174 168 161 155 158 166 171 182 183 183 187 189 188 186 192 193 180 174 179 212 195 234 306 15 54 64 61 311 271 327 56 32 16 21 342 324 348 229 339 7 317 317 326 313
179 178 177 175 170 171 170 175 184 184 184 187 197 201 189 184 180 176 192 184 178 289 213 130 105 70 70 239 311 347 13 55 72 20 279 329 315 360 32 349 303 305 318 314 293
178 175 173 173 179 177 170 167 171 177 182 184 196 186 185 173 144 142 138 151 137 244 13 27 82 69 350 342 318 335 345 27 65 323 3 19 346 338 2 40 314 332 312 315 313
177 174 173 170 170 180 164 153 152 161 169 180 182 184 190 164 146 123 122 110 84 64 46 1 14 34 169 308 352 60 67 80 83 31 6 22 330 341 354 74 313 324 325 319 302
178 174 173 170 164 165 158 139 132 136 39 166 170 170 173 160 141 140 139 141 168 231 224 255 108 20 6 99 109 103 46 7 64 244 67 350 352 326 323 342 334 332 336 336 323
177 175 169 167 169 156 153 142 112 68 185 170 172 178 186 177 157 173 199 218 246 1 169 76 70 331 353 346 24 155 34 64 22 342 77 332 353 281 299 326 330 328 331 335 332
177 172 163 163 154 154 149 132 95 104 96 249 208 159 122 251 267 352 333 15 276 339 32 69 64 316 331 14 36 75 100 4 317 307 357 316 334 321 308 318 329 340 334 333 342
177 169 169 166 158 155 153 139 59 137 193 152 195 46 219 210 282 198 212 282 298 340 34 341 96 270 314 344 342 334 339 6 220 11 318 99 273 305 295 295 309 326 321 318 324
177 172 171 174 169 162 158 173 151 203 175 156 173 224 238 269 292 306 225 248 262 296 232 211 256 253 282 325 321 304 331 343 345 299 288 264 323 273 285 293 296 302 309 317 320
176 174 173 178 177 169 167 85 229 183 195 154 170 238 217 300 266 210 282 282 258 260 255 260 260 251 264 338 314 315 318 285 287 291 300 311 283 298 283 286 293 308 316 324 319
181 173 175 177 180 178 187 220 187 198 208 218 202 178 212 225 220 222 218 260 282 257 260 253 266 259 238 215 290 316 290 291 280 277 270 273 292 289 301 313 310 308 322 320 323
182 177 176 177 176 181 193 187 195 214 219 212 215 233 230 215 219 220 207 262 265 264 262 274 267 265 275 347 285 288 289 301 294 283 292 293 299 278 272 275 281 298 318 317 319
182 176 180 182 186 184 184 205 213 232 234 224 212 229 230 228 236 240 246 251 276 269 276 269 269 271 269 221 219 246 268 280 287 287 295 280 281 275 276 285 293 309 319 316 315
180 180 183 187 179 187 196 219 220 247 244 243 234 235 237 239 243 250 256 261 274 272 272 276 270 267 270 272 247 254 270 277 282 287 287 297 291 294 292 300 312 315 317 314 319
192 192 184 182 188 202 213 220 213 224 261 259 237 242 242 247 249 248 253 262 271 278 287 277 274 272 269 275 275 273 276 280 281 286 284 288 288 276 295 308 311 312 314 311 315
191 193 198 198 208 218 229 233 235 232 225 235 231 236 239 246 252 264 268 271 278 281 286 286 286 288 284 282 273 280 287 286 281 278 291 292 291 296 299 304 304 310 306 312 315
Height
5881 5882 5881 5881 5881 5883 5885 5887 5889 5892 5896 5898 5900 5902 5904 5906 5908 5909 5910 5911 5912 5914 5916 5917 5918 5919 5915 5918 5918 5915 5913 5913 5912 5916 5918 5916 5916 5915 5914 5913 5912 5911 5911 5911 5912
5882 5883 5883 5883 5883 5885 5887 5890 5893 5895 5899 5901 5903 5904 5906 5908 5910 5911 5913 5913 5915 5917 5919 5920 5919 5919 5920 5920 5917 5917 5916 5916 5920 5921 5917 5918 5917 5916 5915 5914 5915 5915 5915 5915 5915
5883 5884 5884 5885 5886 5887 5890 5893 5896 5898 5901 5903 5905 5907 5909 5911 5913 5914 5915 5916 5917 5919 5920 5916 5916 5914 5915 5921 5925 5919 5922 5924 5925 5922 5921 5920 5919 5918 5918 5918 5917 5917 5917 5917 5917
5884 5885 5886 5887 5888 5889 5892 5895 5898 5901 5903 5906 5908 5909 5912 5913 5917 5916 5917 5918 5920 5920 5918 5925 5915 5879 5914 5921 5923 5925 5923 5926 5926 5925 5923 5923 5922 5920 5920 5919 5918 5919 5919 5919 5919
5885 5886 5887 5888 5889 5891 5894 5897 5900 5903 5906 5908 5910 5912 5914 5916 5917 5917 5919 5920 5922 5923 5922 5928 5920 5898 5911 5923 5929 5928 5926 5927 5928 5926 5925 5925 5926 5925 5923 5922 5921 5920 5920 5920 5920
5885 5886 5888 5889 5891 5893 5896 5899 5902 5904 5907 5909 5912 5914 5916 5917 5918 5919 5920 5922 5924 5926 5926 5926 5928 5929 5921 5931 5930 5929 5931 5930 5929 5928 5928 5928 5927 5923 5923 5924 5924 5923 5922 5921 5921
5886 5887 5889 5891 5892 5894 5897 5901 5904 5907 5909 5912 5914 5916 5917 5919 5920 5921 5922 5924 5925 5928 5929 5929 5929 5929 5929 5931 5931 5922 5923 5930 5928 5928 5928 5928 5927 5926 5927 5923 5924 5925 5924 5923 5922
5887 5888 5890 5892 5894 5896 5899 5903 5906 5909 5911 5913 5915 5917 5917 5918 5920 5922 5924 5926 5926 5928 5929 5929 5929 5930 5931 5929 5925 5923 5926 5926 5925 5923 5921 5925 5922 5925 5928 5927 5926 5925 5924 5923 5922
5887 5890 5891 5893 5896 5898 5901 5904 5908 5911 5913 5915 5917 5919 5919 5920 5922 5924 5926 5928 5928 5928 5927 5927 5927 5929 5927 5922 5926 5926 5926 5920 5925 5923 5924 5922 5923 5922 5914 5921 5925 5927 5925 5925 5924
5887 5891 5893 5895 5897 5900 5903 5905 5909 5912 5914 5915 5917 5921 5922 5923 5924 5926 5928 5929 5929 5928 5931 5930 5926 5929 5928 5921 5923 5926 5926 5924 5925 5927 5926 5926 5927 5922 5921 5916 5920 5926 5926 5925 5924
5888 5891 5894 5896 5899 5902 5904 5907 5910 5913 5914 5917 5919 5920 5922 5924 5925 5927 5928 5929 5928 5931 5927 5919 5925 5927 5927 5927 5931 5929 5929 5926 5926 5926 5928 5929 5931 5931 5924 5914 5900 5923 5926 5927 5926
5888 5891 5894 5897 5900 5902 5905 5907 5911 5914 5916 5917 5919 5922 5924 5925 5926 5927 5928 5929 5929 5928 5927 5925 5930 5929 5928 5928 5929 5932 5930 5928 5930 5930 5931 5932 5930 5930 5925 5924 5919 5925 5925 5925 5926
5888 5891 5894 5897 5900 5903 5905 5907 5910 5913 5916 5919 5921 5922 5924 5926 5926 5927 5928 5929 5930 5927 5927 5929 5930 5929 5932 5935 5934 5932 5932 5932 5934 5934 5932 5930 5928 5929 5932 5931 5931 5928 5922 5925 5922
5888 5891 5895 5897 5901 5903 5906 5908 5911 5913 5916 5920 5922 5924 5925 5926 5927 5928 5929 5931 5930 5928 5927 5929 5930 5932 5935 5935 5934 5934 5933 5933 5934 5933 5933 5928 5928 5925 5922 5921 5928 5926 5928 5924 5918
5888 5892 5895 5899 5902 5905 5908 5909 5912 5916 5919 5922 5922 5924 5925 5927 5928 5930 5931 5932 5934 5933 5931 5933 5934 5934 5936 5935 5934 5936 5936 5934 5932 5934 5934 5934 5930 5928 5926 5928 5928 5925 5922 5921 5922
5889 5893 5896 5899 5902 5906 5908 5911 5915 5920 5920 5922 5923 5925 5927 5929 5930 5932 5933 5934 5933 5934 5931 5933 5931 5935 5936 5935 5935 5933 5931 5933 5932 5930 5931 5934 5935 5930 5926 5927 5927 5924 5921 5918 5917
5890 5893 5897 5900 5904 5905 5910 5914 5917 5919 5923 5925 5925 5927 5928 5930 5931 5933 5933 5933 5932 5932 5934 5932 5931 5936 5936 5936 5935 5934 5936 5937 5936 5937 5932 5938 5939 5932 5927 5926 5925 5923 5920 5917 5915
5890 5894 5899 5901 5904 5908 5912 5918 5919 5927 5925 5926 5927 5929 5930 5935 5936 5935 5936 5937 5933 5935 5936 5933 5935 5936 5937 5936 5936 5935 5936 5939 5936 5939 5941 5941 5938 5934 5927 5922 5920 5919 5914 5909 5912
5891 5895 5899 5902 5905 5909 5914 5916 5925 5928 5927 5931 5933 5932 5935 5935 5934 5936 5936 5937 5930 5925 5931 5930 5932 5938 5936 5936 5936 5935 5934 5935 5936 5941 5943 5944 5939 5932 5929 5924 5917 5915 5912 5910 5904
5892 5895 5900 5904 5907 5910 5915 5917 5921 5922 5924 5929 5935 5936 5935 5935 5937 5937 5939 5941 5939 5932 5934 5935 5936 5940 5935 5936 5935 5935 5935 5935 5936 5939 5939 5939 5938 5933 5925 5920 5917 5914 5910 5906 5903
5892 5896 5900 5903 5907 5912 5915 5919 5921 5922 5924 5928 5933 5934 5934 5937 5938 5937 5940 5937 5934 5932 5932 5933 5933 5936 5937 5937 5938 5934 5933 5934 5936 5936 5935 5935 5939 5927 5922 5919 5913 5908 5902 5901 5898
5892 5895 5899 5903 5907 5911 5913 5919 5920 5922 5924 5925 5926 5929 5932 5933 5933 5934 5936 5935 5931 5931 5931 5930 5930 5931 5932 5933 5933 5932 5930 5930 5929 5930 5930 5929 5930 5925 5918 5908 5902 5898 5894 5890 5891
5892 5896 5899 5901 5906 5910 5914 5917 5919 5922 5923 5924 5925 5925 5926 5926 5928 5929 5932 5928 5929 5929 5929 5930 5929 5929 5929 5934 5936 5930 5926 5925 5925 5925 5923 5921 5923 5925 5916 5909 5900 5892 5889 5883 5883
5892 5896 5899 5902 5903 5906 5911 5916 5918 5919 5920 5920 5922 5922 5924 5925 5926 5927 5927 5927 5925 5926 5926 5925 5925 5924 5924 5926 5925 5923 5923 5922 5920 5918 5917 5917 5916 5913 5906 5900 5891 5886 5881 5874 5870
5890 5894 5897 5901 5905 5908 5911 5915 5916 5917 5918 5918 5920 5921 5922 5923 5923 5924 5924 5923 5922 5921 5921 5920 5920 5919 5919 5919 5920 5918 5917 5916 5914 5912 5909 5909 5905 5903 5895 5887 5883 5878 5873 5863 5857
5890 5893 5896 5899 5903 5905 5907 5910 5911 5915 5918 5916 5917 5918 5918 5919 5919 5919 5919 5918 5918 5916 5916 5916 5915 5914 5914 5913 5911 5910 5911 5909 5907 5905 5902 5900 5898 5894 5884 5879 5874 5869 5862 5855 5847
5891 5893 5896 5899 5901 5903 5905 5906 5908 5910 5911 5911 5912 5913 5914 5913 5914 5914 5914 5914 5913 5912 5912 5911 5909 5907 5906 5907 5904 5905 5903 5900 5900 5897 5894 5891 5887 5883 5879 5874 5868 5863 5856 5849 5838